| time (UTC) | temp F | wind direction | speed MPH | gust MPH | rain 1hr in | rain 24hr in | rain mn in | humidity % | barometer mb |
| 20260510182500 | 73 | 81 | 2.0 | 7.0 | 0.00 | 0.21 | 0.21 | 74 | 1017.0 |
| 20260510182000 | 73 | 60 | 1.0 | 6.0 | 0.00 | 0.21 | 0.21 | 75 | 1017.0 |
| 20260510181505 | 73 | 71 | 1.0 | 5.0 | 0.00 | 0.21 | 0.21 | 74 | 1016.9 |
| 20260510181000 | 73 | 82 | 0.0 | 4.0 | 0.00 | 0.21 | 0.21 | 76 | 1017.0 |
| 20260510180500 | 72 | 93 | 1.0 | 5.0 | 0.01 | 0.21 | 0.21 | 77 | 1016.8 |
| 20260510175500 | 70 | 76 | 0.0 | 5.0 | 0.01 | 0.21 | 0.21 | 82 | 1016.7 |
| 20260510175000 | 70 | 29 | 1.0 | 5.0 | 0.06 | 0.21 | 0.21 | 81 | 1016.9 |
| 20260510174506 | 69 | 70 | 0.0 | 6.0 | 0.09 | 0.21 | 0.21 | 84 | 1017.0 |
| 20260510174000 | 68 | 90 | 0.0 | 6.0 | 0.15 | 0.21 | 0.21 | 86 | 1017.0 |
| 20260510173500 | 68 | 27 | 2.0 | 8.0 | 0.16 | 0.21 | 0.21 | 85 | 1017.0 |
| 20260510173005 | 68 | 57 | 1.0 | 8.0 | 0.16 | 0.21 | 0.21 | 87 | 1017.1 |
| 20260510172500 | 67 | 71 | 1.0 | 6.0 | 0.16 | 0.21 | 0.21 | 91 | 1017.0 |
| 20260510172000 | 65 | 55 | 1.0 | 6.0 | 0.16 | 0.21 | 0.21 | 91 | 1017.4 |
| 20260510171505 | 65 | 45 | 1.0 | 9.0 | 0.16 | 0.21 | 0.21 | 90 | 1017.1 |
| 20260510171001 | 64 | 80 | 1.0 | 9.0 | 0.16 | 0.21 | 0.21 | 90 | 1017.2 |
| 20260510170500 | 64 | 37 | 2.0 | 11.0 | 0.15 | 0.20 | 0.20 | 90 | 1017.3 |
| 20260510170006 | 64 | 82 | 3.0 | 12.0 | 0.15 | 0.20 | 0.20 | 89 | 1017.3 |
| 20260510165500 | 64 | 78 | 4.0 | 12.0 | 0.15 | 0.20 | 0.20 | 89 | 1017.6 |
| 20260510165000 | 64 | 55 | 3.0 | 11.0 | 0.10 | 0.15 | 0.15 | 88 | 1017.8 |
| 20260510164001 | 65 | 42 | 3.0 | 13.0 | 0.01 | 0.06 | 0.06 | 85 | 1017.6 |
| 20260510162500 | 67 | 10 | 5.0 | 13.0 | 0.00 | 0.05 | 0.05 | 79 | 1018.0 |
| 20260510162000 | 68 | 342 | 3.0 | 16.0 | 0.00 | 0.05 | 0.05 | 77 | 1017.6 |
| 20260510161504 | 68 | 28 | 5.0 | 18.0 | 0.00 | 0.05 | 0.05 | 74 | 1017.4 |
| 20260510161000 | 69 | 49 | 6.0 | 20.0 | 0.00 | 0.05 | 0.05 | 72 | 1016.9 |
| 20260510160500 | 71 | 32 | 6.0 | 20.0 | 0.00 | 0.05 | 0.05 | 68 | 1017.0 |
| 20260510160006 | 76 | 11 | 7.0 | 16.0 | 0.00 | 0.05 | 0.05 | 64 | 1016.9 |
| 20260510155500 | 77 | 97 | 0.0 | 7.0 | 0.00 | 0.05 | 0.05 | 61 | 1015.8 |
| 20260510155000 | 78 | 101 | 1.0 | 14.0 | 0.00 | 0.05 | 0.05 | 60 | 1015.1 |
| 20260510154504 | 79 | 179 | 2.0 | 14.0 | 0.00 | 0.05 | 0.05 | 60 | 1014.8 |
| 20260510154000 | 79 | 167 | 2.0 | 13.0 | 0.00 | 0.05 | 0.05 | 61 | 1014.5 |
| 20260510153500 | 78 | 215 | 3.0 | 9.0 | 0.00 | 0.05 | 0.05 | 60 | 1014.0 |
| 20260510152500 | 77 | 350 | 1.0 | 19.0 | 0.00 | 0.05 | 0.05 | 62 | 1013.4 |
| 20260510152000 | 77 | 219 | 3.0 | 19.0 | 0.00 | 0.05 | 0.05 | 63 | 1013.3 |
| 20260510151503 | 76 | 178 | 2.0 | 12.0 | 0.00 | 0.05 | 0.05 | 63 | 1013.4 |
| 20260510150500 | 76 | 164 | 3.0 | 11.0 | 0.00 | 0.05 | 0.05 | 65 | 1013.5 |
| 20260510145501 | 75 | 160 | 3.0 | 10.0 | 0.00 | 0.05 | 0.05 | 67 | 1013.5 |
| 20260510145000 | 74 | 175 | 1.0 | 13.0 | 0.00 | 0.05 | 0.05 | 68 | 1013.6 |
| 20260510144504 | 74 | 175 | 2.0 | 12.0 | 0.00 | 0.05 | 0.05 | 68 | 1013.7 |
| 20260510144000 | 74 | 196 | 1.0 | 8.0 | 0.00 | 0.05 | 0.05 | 70 | 1013.6 |
| 20260510143501 | 73 | 180 | 2.0 | 8.0 | 0.00 | 0.05 | 0.05 | 71 | 1013.6 |
| 20260510143003 | 72 | 101 | 1.0 | 10.0 | 0.00 | 0.05 | 0.05 | 71 | 1013.8 |
| 20260510142500 | 72 | 109 | 1.0 | 8.0 | 0.00 | 0.05 | 0.05 | 71 | 1014.0 |
| 20260510140500 | 72 | 110 | 1.0 | 10.0 | 0.00 | 0.05 | 0.05 | 73 | 1014.3 |
| 20260510135459 | 72 | 123 | 1.0 | 8.0 | 0.00 | 0.05 | 0.05 | 73 | 1014.3 |
| 20260510135001 | 72 | 150 | 1.0 | 10.0 | 0.00 | 0.05 | 0.05 | 74 | 1014.4 |
| 20260510134502 | 72 | 105 | 2.0 | 10.0 | 0.00 | 0.05 | 0.05 | 74 | 1014.5 |
| 20260510133959 | 71 | 137 | 0.0 | 9.0 | 0.00 | 0.05 | 0.05 | 76 | 1014.5 |
| 20260510133458 | 71 | 151 | 1.0 | 9.0 | 0.00 | 0.05 | 0.05 | 78 | 1014.6 |
| 20260510133003 | 70 | 121 | 1.0 | 7.0 | 0.00 | 0.05 | 0.05 | 80 | 1014.6 |
| 20260510132459 | 69 | 182 | 0.0 | 7.0 | 0.00 | 0.05 | 0.05 | 80 | 1014.8 |
| 20260510131959 | 69 | 187 | 0.0 | 4.0 | 0.00 | 0.05 | 0.05 | 80 | 1014.8 |
| 20260510131503 | 69 | 133 | 0.0 | 4.0 | 0.00 | 0.05 | 0.05 | 81 | 1014.9 |
| 20260510130959 | 69 | 145 | 0.0 | 3.0 | 0.00 | 0.05 | 0.05 | 81 | 1014.9 |
| 20260510130459 | 69 | 175 | 0.0 | 7.0 | 0.00 | 0.05 | 0.05 | 81 | 1015.0 |
| 20260510130004 | 69 | 138 | 0.0 | 7.0 | 0.00 | 0.05 | 0.05 | 81 | 1014.8 |
| 20260510125459 | 69 | 99 | 1.0 | 6.0 | 0.00 | 0.05 | 0.05 | 80 | 1014.7 |
| 20260510124958 | 69 | 155 | 1.0 | 5.0 | 0.00 | 0.05 | 0.05 | 81 | 1014.6 |
| 20260510124502 | 69 | 83 | 1.0 | 4.0 | 0.00 | 0.05 | 0.05 | 81 | 1014.6 |
| 20260510124000 | 69 | 118 | 0.0 | 5.0 | 0.00 | 0.05 | 0.05 | 81 | 1014.5 |
| 20260510123459 | 69 | 128 | 0.0 | 6.0 | 0.00 | 0.05 | 0.05 | 82 | 1014.5 |
| 20260510123002 | 69 | 110 | 0.0 | 6.0 | 0.00 | 0.05 | 0.05 | 82 | 1014.3 |
| 20260510122459 | 68 | 192 | 0.0 | 5.0 | 0.00 | 0.05 | 0.05 | 82 | 1014.2 |
| 20260510121502 | 68 | 144 | 1.0 | 6.0 | 0.00 | 0.05 | 0.05 | 82 | 1014.3 |
| 20260510120959 | 68 | 179 | 1.0 | 5.0 | 0.00 | 0.05 | 0.05 | 82 | 1014.3 |
| 20260510120459 | 68 | 155 | 0.0 | 4.0 | 0.00 | 0.05 | 0.05 | 82 | 1014.2 |
| 20260510120004 | 68 | 114 | 0.0 | 4.0 | 0.00 | 0.05 | 0.05 | 82 | 1014.2 |
| 20260510115500 | 67 | 263 | 0.0 | 4.0 | 0.00 | 0.05 | 0.05 | 83 | 1014.1 |
| 20260510114958 | 67 | 157 | 0.0 | 4.0 | 0.00 | 0.05 | 0.05 | 83 | 1013.9 |
| 20260510114502 | 67 | 134 | 0.0 | 7.0 | 0.00 | 0.05 | 0.05 | 83 | 1013.8 |
| 20260510113959 | 67 | 144 | 0.0 | 7.0 | 0.00 | 0.05 | 0.05 | 83 | 1013.8 |
| 20260510113459 | 67 | 171 | 1.0 | 6.0 | 0.00 | 0.05 | 0.05 | 83 | 1013.7 |
| 20260510113009 | 67 | 138 | 0.0 | 3.0 | 0.00 | 0.05 | 0.05 | 83 | 1013.7 |
| 20260510112459 | 67 | 161 | 0.0 | 2.0 | 0.00 | 0.05 | 0.05 | 83 | 1013.8 |
| 20260510111959 | 67 | 167 | 0.0 | 1.0 | 0.00 | 0.05 | 0.05 | 84 | 1013.9 |
| 20260510111000 | 66 | 123 | 0.0 | 2.0 | 0.00 | 0.05 | 0.05 | 85 | 1013.9 |
| 20260510110458 | 66 | 94 | 0.0 | 1.0 | 0.00 | 0.05 | 0.05 | 85 | 1013.7 |
| 20260510110006 | 66 | 99 | 0.0 | 1.0 | 0.00 | 0.05 | 0.05 | 84 | 1013.8 |
| 20260510104959 | 66 | 82 | 0.0 | 2.0 | 0.00 | 0.05 | 0.05 | 85 | 1013.9 |
| 20260510104503 | 66 | 82 | 0.0 | 2.0 | 0.00 | 0.05 | 0.05 | 85 | 1013.9 |
| 20260510103959 | 66 | 144 | 0.0 | 1.0 | 0.00 | 0.05 | 0.05 | 85 | 1013.9 |
| 20260510103459 | 66 | 144 | 0.0 | 1.0 | 0.00 | 0.05 | 0.05 | 85 | 1013.8 |
| 20260510103003 | 66 | 144 | 0.0 | 3.0 | 0.00 | 0.05 | 0.05 | 85 | 1013.7 |
| 20260510102500 | 66 | 140 | 0.0 | 3.0 | 0.00 | 0.05 | 0.05 | 85 | 1013.6 |
| 20260510101503 | 65 | 122 | 0.0 | 3.0 | 0.00 | 0.05 | 0.05 | 84 | 1013.3 |
| 20260510100959 | 65 | 69 | 0.0 | 5.0 | 0.01 | 0.05 | 0.05 | 84 | 1013.4 |
| 20260510095458 | 66 | 86 | 1.0 | 8.0 | 0.02 | 0.05 | 0.05 | 85 | 1013.6 |
| 20260510094959 | 66 | 87 | 2.0 | 11.0 | 0.03 | 0.05 | 0.05 | 86 | 1013.7 |
| 20260510094501 | 66 | 67 | 2.0 | 11.0 | 0.04 | 0.05 | 0.05 | 87 | 1013.6 |
| 20260510093958 | 66 | 105 | 1.0 | 10.0 | 0.05 | 0.05 | 0.05 | 87 | 1013.8 |
| 20260510093458 | 66 | 5 | 3.0 | 10.0 | 0.05 | 0.05 | 0.05 | 87 | 1013.7 |
| 20260510093001 | 66 | 44 | 1.0 | 11.0 | 0.05 | 0.05 | 0.05 | 87 | 1013.7 |
| 20260510092458 | 66 | 61 | 2.0 | 11.0 | 0.05 | 0.05 | 0.05 | 86 | 1013.6 |
| 20260510091959 | 66 | 58 | 2.0 | 8.0 | 0.05 | 0.05 | 0.05 | 86 | 1013.6 |
| 20260510090958 | 67 | 79 | 2.0 | 13.0 | 0.04 | 0.04 | 0.04 | 83 | 1012.7 |
| 20260510090004 | 68 | 166 | 0.0 | 9.0 | 0.04 | 0.04 | 0.04 | 82 | 1012.7 |
| 20260510085458 | 69 | 63 | 1.0 | 16.0 | 0.03 | 0.03 | 0.03 | 80 | 1012.7 |
| 20260510084501 | 71 | 109 | 2.0 | 15.0 | 0.01 | 0.01 | 0.01 | 76 | 1012.6 |
| 20260510083958 | 73 | 48 | 0.0 | 13.0 | 0.00 | 0.00 | 0.00 | 74 | 1012.7 |
| 20260510083458 | 73 | 51 | 5.0 | 15.0 | 0.00 | 0.00 | 0.00 | 73 | 1012.8 |
| 20260510083003 | 73 | 318 | 3.0 | 13.0 | 0.00 | 0.00 | 0.00 | 76 | 1012.7 |
| 20260510082458 | 73 | 30 | 0.0 | 12.0 | 0.00 | 0.00 | 0.00 | 78 | 1012.6 |
| 20260510081958 | 73 | 26 | 1.0 | 10.0 | 0.00 | 0.00 | 0.00 | 78 | 1012.6 |
| 20260510081501 | 74 | 42 | 4.0 | 10.0 | 0.00 | 0.00 | 0.00 | 79 | 1012.7 |
| 20260510075458 | 75 | 73 | 2.0 | 12.0 | 0.00 | 0.00 | 0.00 | 82 | 1012.8 |
| 20260510074959 | 75 | 360 | 2.0 | 8.0 | 0.00 | 0.00 | 0.00 | 83 | 1012.7 |
| 20260510074501 | 74 | 22 | 0.0 | 2.0 | 0.00 | 0.00 | 0.00 | 82 | 1012.2 |
| 20260510073457 | 75 | 82 | 0.0 | 0.0 | 0.00 | 0.00 | 0.00 | 80 | 1011.2 |
| 20260510073001 | 75 | 82 | 0.0 | 2.0 | 0.00 | 0.00 | 0.00 | 80 | 1010.9 |
| 20260510072459 | 75 | 82 | 0.0 | 3.0 | 0.00 | 0.00 | 0.00 | 79 | 1010.8 |
| 20260510071959 | 76 | 67 | 1.0 | 6.0 | 0.00 | 0.00 | 0.00 | 79 | 1010.8 |
| 20260510070958 | 76 | 95 | 1.0 | 6.0 | 0.00 | 0.00 | 0.00 | 78 | 1010.7 |
| 20260510070458 | 76 | 77 | 0.0 | 4.0 | 0.00 | 0.00 | 0.00 | 78 | 1010.5 |
| 20260510070004 | 76 | 68 | 0.0 | 4.0 | 0.00 | 0.00 | 0.00 | 77 | 1010.5 |
| 20260510065458 | 76 | 59 | 0.0 | 7.0 | 0.00 | 0.00 | 0.00 | 76 | 1010.3 |
| 20260510064958 | 77 | 67 | 1.0 | 8.0 | 0.00 | 0.00 | 0.00 | 76 | 1010.3 |
| 20260510064502 | 77 | 115 | 1.0 | 8.0 | 0.00 | 0.00 | 0.00 | 75 | 1010.1 |
| 20260510063958 | 77 | 121 | 0.0 | 8.0 | 0.00 | 0.00 | 0.00 | 74 | 1009.9 |
| 20260510063458 | 77 | 110 | 1.0 | 10.0 | 0.00 | 0.00 | 0.00 | 73 | 1009.9 |
| 20260510063001 | 77 | 130 | 2.0 | 11.0 | 0.00 | 0.00 | 0.00 | 73 | 1009.9 |
| 20260510062459 | 77 | 76 | 2.0 | 11.0 | 0.00 | 0.00 | 0.00 | 72 | 1009.9 |
| 20260510061958 | 77 | 97 | 2.0 | 8.0 | 0.00 | 0.00 | 0.00 | 72 | 1010.9 |
| 20260510061500 | 77 | 168 | 1.0 | 11.0 | 0.00 | 0.00 | 0.00 | 72 | 1012.0 |
| 20260510060959 | 76 | 56 | 2.0 | 13.0 | 0.00 | 0.00 | 0.00 | 72 | 1012.5 |
| 20260510060459 | 76 | 355 | 5.0 | 14.0 | 0.00 | 0.00 | 0.00 | 73 | 1012.6 |
| 20260510060009 | 76 | 64 | 3.0 | 18.0 | 0.00 | 0.00 | 0.00 | 73 | 1012.7 |
| 20260510055004 | 76 | 60 | 4.0 | 16.0 | 0.00 | 0.00 | 0.00 | 73 | 1012.6 |
| 20260510054518 | 76 | 49 | 8.0 | 16.0 | 0.00 | 0.00 | 0.00 | 72 | 1012.2 |
| 20260510054003 | 76 | 350 | 6.0 | 13.0 | 0.00 | 0.00 | 0.00 | 73 | 1012.1 |
| 20260510053504 | 76 | 5 | 0.0 | 2.0 | 0.00 | 0.00 | 0.00 | 72 | 1011.2 |
| 20260510053007 | 76 | 154 | 0.0 | 0.0 | 0.00 | 0.00 | 0.00 | 72 | 1010.2 |
| 20260510052504 | 76 | 154 | 0.0 | 0.0 | 0.00 | 0.00 | 0.00 | 71 | 1009.6 |
| 20260510052004 | 76 | 154 | 0.0 | 1.0 | 0.00 | 0.00 | 0.00 | 71 | 1009.4 |
| 20260510051507 | 76 | 128 | 0.0 | 0.0 | 0.00 | 0.00 | 0.00 | 70 | 1009.3 |
| 20260510051004 | 76 | 122 | 0.0 | 0.0 | 0.00 | 0.00 | 0.00 | 70 | 1009.2 |
| 20260510050504 | 77 | 123 | 0.0 | 1.0 | 0.00 | 0.00 | 0.00 | 69 | 1009.2 |
| 20260510050019 | 77 | 132 | 0.0 | 0.0 | 0.00 | 0.00 | 0.00 | 69 | 1009.2 |
| 20260510045503 | 77 | 122 | 0.0 | 2.0 | 0.00 | 0.00 | 0.00 | 69 | 1009.0 |
| 20260510045004 | 77 | 110 | 0.0 | 2.0 | 0.00 | 0.00 | 0.00 | 69 | 1008.9 |
| 20260510044505 | 77 | 91 | 0.0 | 4.0 | 0.00 | 0.00 | 0.00 | 69 | 1008.9 |
| 20260510044003 | 77 | 82 | 0.0 | 4.0 | 0.00 | 0.00 | 0.00 | 69 | 1008.9 |
| 20260510043502 | 77 | 119 | 0.0 | 3.0 | 0.00 | 0.00 | 0.00 | 69 | 1008.8 |
| 20260510043006 | 77 | 140 | 0.0 | 4.0 | 0.00 | 0.00 | 0.00 | 69 | 1008.8 |
| 20260510042503 | 77 | 164 | 0.0 | 4.0 | 0.00 | 0.00 | 0.00 | 69 | 1008.6 |
| 20260510042003 | 77 | 135 | 0.0 | 3.0 | 0.00 | 0.00 | 0.00 | 70 | 1008.6 |
| 20260510041506 | 77 | 138 | 0.0 | 1.0 | 0.00 | 0.00 | 0.00 | 70 | 1008.7 |
| 20260510041003 | 77 | 111 | 0.0 | 1.0 | 0.00 | 0.00 | 0.00 | 70 | 1008.7 |
| 20260510040503 | 77 | 118 | 0.0 | 1.0 | 0.00 | 0.00 | 0.00 | 70 | 1008.7 |
| 20260510040008 | 77 | 130 | 0.0 | 3.0 | 0.00 | 0.00 | 0.00 | 70 | 1008.8 |
| 20260510035004 | 77 | 105 | 0.0 | 2.0 | 0.00 | 0.00 | 0.00 | 71 | 1009.0 |
| 20260510034506 | 77 | 124 | 0.0 | 2.0 | 0.00 | 0.00 | 0.00 | 71 | 1009.0 |
| 20260510034002 | 77 | 103 | 0.0 | 0.0 | 0.00 | 0.00 | 0.00 | 71 | 1009.0 |
| 20260510033502 | 77 | 105 | 0.0 | 0.0 | 0.00 | 0.00 | 0.00 | 71 | 1009.1 |
| 20260510033008 | 77 | 105 | 0.0 | 0.0 | 0.00 | 0.00 | 0.00 | 70 | 1009.0 |
| 20260510032502 | 77 | 104 | 0.0 | 0.0 | 0.00 | 0.00 | 0.00 | 69 | 1009.0 |
| 20260510032003 | 77 | 118 | 0.0 | 1.0 | 0.00 | 0.00 | 0.00 | 68 | 1009.0 |
| 20260510031506 | 77 | 118 | 0.0 | 1.0 | 0.00 | 0.00 | 0.00 | 68 | 1009.1 |
| 20260510031002 | 77 | 101 | 0.0 | 0.0 | 0.00 | 0.00 | 0.00 | 68 | 1009.3 |
| 20260510030503 | 77 | 101 | 0.0 | 0.0 | 0.00 | 0.00 | 0.00 | 67 | 1009.1 |
| 20260510030008 | 78 | 101 | 0.0 | 0.0 | 0.00 | 0.00 | 0.00 | 67 | 1009.1 |
| 20260510025002 | 78 | 101 | 0.0 | 0.0 | 0.00 | 0.00 | 0.00 | 66 | 1009.1 |
| 20260510024506 | 78 | 93 | 0.0 | 0.0 | 0.00 | 0.00 | 0.00 | 66 | 1009.1 |
| 20260510023007 | 78 | 93 | 0.0 | 1.0 | 0.00 | 0.00 | 0.00 | 64 | 1009.1 |
| 20260510022004 | 79 | 90 | 0.0 | 0.0 | 0.00 | 0.00 | 0.00 | 63 | 1009.0 |
| 20260510021506 | 79 | 90 | 0.0 | 0.0 | 0.00 | 0.00 | 0.00 | 62 | 1009.0 |
| 20260510021004 | 79 | 88 | 0.0 | 0.0 | 0.00 | 0.00 | 0.00 | 63 | 1009.0 |
| 20260510020008 | 79 | 88 | 0.0 | 0.0 | 0.00 | 0.00 | 0.00 | 63 | 1009.0 |
| 20260510015502 | 79 | 89 | 0.0 | 0.0 | 0.00 | 0.00 | 0.00 | 62 | 1008.8 |
| 20260510014507 | 80 | 95 | 0.0 | 0.0 | 0.00 | 0.00 | 0.00 | 61 | 1008.6 |
| 20260510014003 | 80 | 95 | 0.0 | 1.0 | 0.00 | 0.00 | 0.00 | 61 | 1008.6 |
| 20260510012004 | 81 | 90 | 0.0 | 0.0 | 0.00 | 0.00 | 0.00 | 60 | 1008.4 |
| 20260510011506 | 82 | 90 | 0.0 | 2.0 | 0.00 | 0.00 | 0.00 | 60 | 1008.3 |
| 20260510011002 | 82 | 91 | 0.0 | 0.0 | 0.00 | 0.00 | 0.00 | 61 | 1008.2 |
| 20260510010502 | 82 | 90 | 0.0 | 2.0 | 0.00 | 0.00 | 0.00 | 60 | 1008.2 |
| 20260510005503 | 83 | 108 | 0.0 | 1.0 | 0.00 | 0.00 | 0.00 | 61 | 1008.0 |
| 20260510005003 | 83 | 117 | 0.0 | 3.0 | 0.00 | 0.00 | 0.00 | 61 | 1008.0 |
| 20260510004506 | 83 | 84 | 0.0 | 4.0 | 0.00 | 0.00 | 0.00 | 60 | 1007.9 |
| 20260510004003 | 84 | 88 | 0.0 | 4.0 | 0.00 | 0.00 | 0.00 | 60 | 1007.9 |
| 20260510003503 | 84 | 87 | 0.0 | 3.0 | 0.00 | 0.00 | 0.00 | 60 | 1008.0 |
| 20260510003007 | 84 | 91 | 1.0 | 7.0 | 0.00 | 0.00 | 0.00 | 59 | 1007.9 |
| 20260510002503 | 85 | 79 | 1.0 | 7.0 | 0.00 | 0.00 | 0.00 | 59 | 1007.8 |
| 20260510002002 | 85 | 86 | 0.0 | 4.0 | 0.00 | 0.00 | 0.00 | 60 | 1007.9 |
| 20260510001506 | 86 | 103 | 1.0 | 4.0 | 0.00 | 0.00 | 0.00 | 58 | 1007.9 |
| 20260510001003 | 86 | 95 | 1.0 | 6.0 | 0.00 | 0.00 | 0.00 | 58 | 1007.9 |
| 20260510000503 | 86 | 103 | 0.0 | 6.0 | 0.00 | 0.00 | 0.00 | 57 | 1007.9 |
| 20260510000008 | 87 | 86 | 1.0 | 7.0 | 0.00 | 0.00 | 0.00 | 57 | 1008.0 |
| 20260509235503 | 87 | 71 | 0.0 | 6.0 | 0.00 | 0.00 | 0.00 | 57 | 1007.9 |
| 20260509235004 | 87 | 71 | 2.0 | 6.0 | 0.00 | 0.00 | 0.00 | 56 | 1007.9 |
| 20260509234003 | 88 | 67 | 0.0 | 5.0 | 0.00 | 0.00 | 0.00 | 55 | 1008.0 |
| 20260509233502 | 88 | 64 | 3.0 | 6.0 | 0.00 | 0.00 | 0.00 | 53 | 1008.1 |
| 20260509233006 | 89 | 83 | 0.0 | 4.0 | 0.00 | 0.00 | 0.00 | 52 | 1008.1 |
| 20260509232502 | 89 | 83 | 1.0 | 6.0 | 0.00 | 0.00 | 0.00 | 50 | 1008.1 |
| 20260509232003 | 89 | 94 | 1.0 | 6.0 | 0.00 | 0.00 | 0.00 | 47 | 1008.1 |
| 20260509231506 | 89 | 87 | 2.0 | 8.0 | 0.00 | 0.00 | 0.00 | 47 | 1008.1 |
| 20260509231002 | 90 | 142 | 2.0 | 8.0 | 0.00 | 0.00 | 0.00 | 44 | 1008.1 |
| 20260509230503 | 90 | 75 | 1.0 | 5.0 | 0.00 | 0.00 | 0.00 | 42 | 1008.2 |
| 20260509230008 | 91 | 115 | 2.0 | 5.0 | 0.00 | 0.00 | 0.00 | 43 | 1008.1 |
| 20260509225502 | 91 | 122 | 1.0 | 6.0 | 0.00 | 0.00 | 0.00 | 44 | 1008.1 |
| 20260509225001 | 91 | 156 | 0.0 | 2.0 | 0.00 | 0.00 | 0.00 | 43 | 1008.1 |
| 20260509224505 | 92 | 157 | 0.0 | 6.0 | 0.00 | 0.00 | 0.00 | 41 | 1008.0 |
| 20260509223501 | 92 | 115 | 0.0 | 2.0 | 0.00 | 0.00 | 0.00 | 41 | 1008.0 |
| 20260509222501 | 91 | 126 | 0.0 | 3.0 | 0.00 | 0.00 | 0.00 | 43 | 1008.0 |
| 20260509222001 | 91 | 126 | 1.0 | 3.0 | 0.00 | 0.00 | 0.00 | 43 | 1008.0 |
| 20260509221505 | 91 | 99 | 1.0 | 3.0 | 0.00 | 0.00 | 0.00 | 43 | 1008.0 |
| 20260509221001 | 91 | 99 | 1.0 | 3.0 | 0.00 | 0.00 | 0.00 | 44 | 1008.0 |
| 20260509220502 | 92 | 99 | 0.0 | 2.0 | 0.00 | 0.00 | 0.00 | 45 | 1008.0 |
| 20260509220007 | 92 | 99 | 0.0 | 2.0 | 0.00 | 0.00 | 0.00 | 45 | 1008.0 |
| 20260509215501 | 91 | 78 | 0.0 | 3.0 | 0.00 | 0.00 | 0.00 | 43 | 1008.0 |
| 20260509215002 | 91 | 78 | 1.0 | 3.0 | 0.00 | 0.00 | 0.00 | 44 | 1008.1 |
| 20260509214505 | 91 | 79 | 1.0 | 4.0 | 0.00 | 0.00 | 0.00 | 45 | 1008.2 |
| 20260509214001 | 91 | 79 | 3.0 | 4.0 | 0.00 | 0.00 | 0.00 | 43 | 1008.1 |
| 20260509211505 | 92 | 5 | 0.0 | 2.0 | 0.00 | 0.00 | 0.00 | 42 | 1008.4 |
| 20260509211001 | 91 | 360 | 0.0 | 4.0 | 0.00 | 0.00 | 0.00 | 44 | 1008.5 |
| 20260509210007 | 93 | 336 | 1.0 | 5.0 | 0.00 | 0.00 | 0.00 | 43 | 1008.7 |
| 20260509205001 | 90 | 86 | 0.0 | 4.0 | 0.00 | 0.00 | 0.00 | 45 | 1008.9 |
| 20260509204506 | 90 | 87 | 1.0 | 4.0 | 0.00 | 0.00 | 0.00 | 43 | 1008.9 |
| 20260509204001 | 90 | 96 | 0.0 | 5.0 | 0.00 | 0.00 | 0.00 | 43 | 1008.9 |
| 20260509203502 | 90 | 96 | 1.0 | 5.0 | 0.00 | 0.00 | 0.00 | 44 | 1009.0 |
| 20260509203005 | 90 | 355 | 1.0 | 4.0 | 0.00 | 0.00 | 0.00 | 46 | 1009.0 |
| 20260509202501 | 90 | 14 | 1.0 | 4.0 | 0.00 | 0.00 | 0.00 | 48 | 1009.1 |
| 20260509202001 | 89 | 345 | 0.0 | 5.0 | 0.00 | 0.00 | 0.00 | 46 | 1009.1 |
| 20260509201504 | 89 | 92 | 0.0 | 6.0 | 0.00 | 0.00 | 0.00 | 48 | 1009.3 |
| 20260509201002 | 89 | 83 | 2.0 | 4.0 | 0.00 | 0.00 | 0.00 | 46 | 1009.3 |
| 20260509200502 | 90 | 94 | 0.0 | 4.0 | 0.00 | 0.00 | 0.00 | 47 | 1009.4 |
| 20260509200006 | 89 | 86 | 2.0 | 4.0 | 0.00 | 0.00 | 0.00 | 44 | 1009.5 |
| 20260509195502 | 89 | 13 | 0.0 | 3.0 | 0.00 | 0.00 | 0.00 | 44 | 1009.5 |
| 20260509195002 | 89 | 46 | 1.0 | 4.0 | 0.00 | 0.00 | 0.00 | 48 | 1009.6 |
| 20260509194512 | 88 | 69 | 0.0 | 5.0 | 0.00 | 0.00 | 0.00 | 53 | 1009.6 |
| 20260509194001 | 88 | 60 | 1.0 | 5.0 | 0.00 | 0.00 | 0.00 | 50 | 1009.7 |
| 20260509193502 | 89 | 76 | 1.0 | 4.0 | 0.00 | 0.00 | 0.00 | 51 | 1009.7 |
| 20260509193005 | 89 | 71 | 0.0 | 3.0 | 0.00 | 0.00 | 0.00 | 51 | 1009.8 |
| 20260509192501 | 88 | 71 | 0.0 | 6.0 | 0.00 | 0.00 | 0.00 | 51 | 1009.8 |
| 20260509192001 | 87 | 79 | 2.0 | 6.0 | 0.00 | 0.00 | 0.00 | 51 | 1009.9 |
| 20260509191504 | 87 | 36 | 0.0 | 8.0 | 0.00 | 0.00 | 0.00 | 55 | 1009.9 |
| 20260509191001 | 86 | 298 | 1.0 | 8.0 | 0.00 | 0.00 | 0.00 | 57 | 1009.9 |
| 20260509190502 | 87 | 5 | 1.0 | 5.0 | 0.00 | 0.00 | 0.00 | 56 | 1009.9 |
| 20260509190006 | 86 | 355 | 1.0 | 5.0 | 0.00 | 0.00 | 0.00 | 57 | 1009.9 |
| 20260509185500 | 86 | 344 | 1.0 | 5.0 | 0.00 | 0.00 | 0.00 | 56 | 1010.0 |
| 20260509185000 | 86 | 86 | 0.0 | 6.0 | 0.00 | 0.00 | 0.00 | 59 | 1010.1 |
| 20260509184503 | 85 | 355 | 1.0 | 5.0 | 0.00 | 0.00 | 0.00 | 61 | 1010.1 |
| 20260509184000 | 86 | 78 | 2.0 | 4.0 | 0.00 | 0.00 | 0.00 | 58 | 1010.2 |
| 20260509183501 | 86 | 30 | 0.0 | 3.0 | 0.00 | 0.00 | 0.00 | 61 | 1010.2 |
| 20260509183004 | 85 | 347 | 1.0 | 4.0 | 0.00 | 0.00 | 0.00 | 61 | 1010.2 |